User: anonymous   Login
Location: Unspecified
(0.0000°N, 0.0000°E)
Time: 13:31:46
(UTC+00:00)
Language:

Nadezhda 4 - Orbit

View from above orbital plane
View from above orbital plane
View from above satellite
View from above satellite

Ground track
Ground track

The orbit data is extracted from the following two-line orbital elements,

1 23179U 94041A   18347.91010838 +.00000035 +00000-0 +19853-4 0  9991
2 23179 082.9477 262.9715 0034577 199.5360 230.2851 13.76550271226437
Epoch (UTC): 13 December 2018 21:50:33
Eccentricity: 0.0034577
inclination: 82.9477°
perigee height: 951 km
apogee height: 1001 km
right ascension of ascending node: 262.9715°
argument of perigee: 199.5360°
revolutions per day: 13.76550271
mean anomaly at epoch: 230.2851°
orbit number at epoch: 22643

The dashed part of the orbit path shows where the satellite is in the earth's shadow,  

DLR